Location: Des Moines
(41.6010°N, 93.6090°W)
Time: 06:05:54
(UTC-05:00)

N. Korean satellite - Visible Passes

Search period start: 14 October 2019 00:00
Search period end: 24 October 2019 00:00
Orbit: 455 x 508 km, 97.2° (Epoch: 13 October)

Date Brightness Start Highest point End Pass type
(mag) Time Alt. Az. Time Alt. Az. Time Alt. Az.
14 Oct 9.9 19:15:49 10° SW 19:18:08 17° W 19:20:28 10° NW visible
15 Oct 8.7 06:40:41 10° NNE 06:43:55 32° E 06:47:12 10° SSE visible
16 Oct 10.0 06:16:12 10° NE 06:18:30 16° E 06:20:49 10° SE visible
17 Oct 10.6 19:35:22 10° W 19:35:47 10° W 19:36:11 10° W visible
18 Oct 7.5 06:57:55 10° NNE 07:01:29 56° E 07:05:04 10° S visible
18 Oct 9.6 19:07:38 10° SW 19:10:16 21° W 19:12:59 10° NW visible
19 Oct 9.2 06:33:01 10° NE 06:36:06 26° E 06:39:14 10° SSE visible
20 Oct 10.2 06:08:51 10° ENE 06:10:39 13° E 06:12:29 10° ESE visible
21 Oct 10.2 19:26:15 10° WSW 19:27:52 13° W 19:29:31 10° WNW visible
22 Oct 8.0 06:50:09 10° NNE 06:53:40 44° E 06:57:11 10° S visible
22 Oct 9.1 18:59:27 10° SSW 19:02:23 26° W 19:05:22 10° NW visible
23 Oct 9.5 06:25:23 10° NE 06:28:16 22° E 06:31:09 10° SSE visible
